Regional Weather Roundup
Issued by NWS

Home | Current Version | Previous Version | Graphics & Text | Print | Product List | Glossary On
Versions: 1 2 3 4 5 6 7 8 9 10 11 12 13 14 15 16 17 18 19 20 21 22 23 24 25 26 27 28 29 30 31 32 33 34 35 36 37 38 39 40 41 42 43 44 45 46 47 48 49 50
000
ASUS43 KIND 020409
RWRIN

WEATHER ROUNDUP FOR INDIANA
NATIONAL WEATHER SERVICE INDIANAPOLIS IN
1200 AM EDT SAT AUG 02 2014

NOTE: "FAIR" INDICATES FEW OR NO CLOUDS BELOW 12,000 FEET WITH NO
SIGNIFICANT WEATHER AND/OR OBSTRUCTIONS TO VISIBILITY.

* - STATION DOES NOT REPORT WEATHER SUCH AS PRECIPITATION OR FOG.

+ - STATION NOT QUALITY CONTROLLED BY THE NATIONAL WEATHER SERVICE.
    USE DATA WITH CAUTION...ESPECIALLY DEWPOINT AND RELATIVE
    HUMIDITY OBSERVATIONS.

INZ001>003-010>013-019-020-020500-
NORTHWEST INDIANA

CITY           SKY/WX    TMP DP  RH WIND       PRES   REMARKS
GARY /AIRPORT/ MOCLDY    63  60  89 CALM      30.13S
KNOX *+          N/A     59  57  93 N3        30.12R VSB 1/2
LA PORTE +     PTCLDY    57  57 100 CALM      30.14R
MICHIGAN CITY+ PTCLDY    59  57  94 CALM      30.12S
MONTICELLO +   MOCLDY    64  62  94 CALM      30.11S
RENSSELAER +   PTCLDY    63  61  94 N3        30.12S
VALPARAISO     PTCLDY    58  56  93 CALM      30.13R

$$

LMZ046-743>745-020500-
SOUTHERN LAKE MICHIGAN

STATION/POSITION TIME  TEMP WIND        PRES
                       AIR  DIR/SP/G
                 (UTC) (F)  (DEG/KT/KT) (MB)
BURNS HARBOR     0300   69  200/  4/  6   N/A
MICHIGAN CITY    0400   68  190/  4/  5   N/A

$$

INZ004-005-014>016-021>024-020500-
NORTH CENTRAL INDIANA

CITY           SKY/WX    TMP DP  RH WIND       PRES   REMARKS
GOSHEN         PTCLDY    62  59  90 CALM      30.11F FOG
LOGANSPORT +   PTCLDY    61  59  94 N6        30.12S
PERU/GRISSOM   PTCLDY    66  66 100 NE3       30.11S
ROCHESTER +    CLEAR     64  61  88 CALM      30.11F
SOUTH BEND     PTCLDY    61  56  83 W6        30.12F
WARSAW +       CLEAR     61  59  94 CALM      30.11F

$$

INZ006>009-017-018-025>027-020500-
NORTHEAST INDIANA

CITY           SKY/WX    TMP DP  RH WIND       PRES   REMARKS
ANGOLA *+      CLEAR     63  63 100 CALM      30.11F
AUBURN +       CLEAR     63  59  88 N3        30.11S
FORT WAYNE     TSTM      66  58  75 N21G30    30.11R
HUNTINGTON +   CLOUDY    65  59  82 N3        30.11S

$$

INZ028-029-035-036-043>045-051>053-020500-
WEST CENTRAL INDIANA

CITY           SKY/WX    TMP DP  RH WIND       PRES   REMARKS
GREENCASTLE +  CLOUDY    64  59  82 NW3       30.12R
LAFAYETTE      CLOUDY    64  62  93 CALM      30.11S
TERRE HAUTE    LGT RAIN  66  63  90 NE5       30.11S

$$

INZ030>032-037>040-046>048-054>057-064-065-020500-
CENTRAL INDIANA

CITY           SKY/WX    TMP DP  RH WIND       PRES   REMARKS
CP ATTERBURY + MOCLDY    63  59  88 W3        30.10S FOG
INDIANAPOLIS   CLOUDY    67  62  84 NW5       30.09S
-EAGLE CREEK   CLOUDY    68  60  75 NW5       30.09S
KOKOMO *+      MOCLDY    66  61  82 N6        30.11S
MARION +         N/A     64  59  82 CALM      30.11S
MT COMFORT *+  CLOUDY    66  66 100 CALM      30.10R
SHELBYVILLE    MOCLDY    68  61  78 NE3       30.08F
ZIONSVILLE +   CLOUDY    66  60  82 CALM      30.11S

$$

INZ033-034-041-042-049-050-058-059-020500-
EAST CENTRAL INDIANA

CITY           SKY/WX    TMP DP  RH WIND       PRES   REMARKS
MUNCIE         CLOUDY    66  60  81 CALM      30.10S

$$

INZ060-061-067>069-081>083-085>088-020500-
SOUTHWEST INDIANA

CITY           SKY/WX    TMP DP  RH WIND       PRES   REMARKS
EVANSVILLE     MOCLDY    72  62  71 N9        30.07S
WASHINGTON +   MOCLDY    68  64  86 CALM      30.08S

$$

INZ062-063-066-070>080-084-089>092-020500-
SOUTH CENTRAL AND SOUTHEAST INDIANA

CITY           SKY/WX    TMP DP  RH WIND       PRES   REMARKS
BLOOMINGTON    CLOUDY    66  62  87 NW6       30.10R

$$



USA.gov is the U.S. government's official web portal to all federal, state and local government web resources and services.